Location: Cosy Dell
(34.2789°N, 117.4537°W)
Time: 12:23:10
(UTC+00:00)

Cosmos 1408 - Pass Details

Date: 14 July 2020
Orbit: 471 x 493 km, 82.6° (Epoch: 08 August)

Event Time Altitude Azimuth Distance (km) Brightness Sun altitude
Exits shadow 05:04:52 31° 51° (NE) 856 3.7 -20.9°
Drops below altitude 10° 05:07:08 10° 23° (NNE) 1,636 5.5 -21.2°
Sets 05:09:18 0° 15° (NNE) 2,518 6.7 -21.5°
